Flag for Switzerland Weather past 2 weeks in Bern, Bern, Switzerland

Now
52 °F

Overcast.


Feels Like: 51 °F
Forecast: 46 / 58 °F
Wind: 5 mph from Southeast

Location: Bern / Belp

Current Time: May 26, 2015 at 12:40:01 AM

Latest Report: May 26, 2015 at 12:20 AM


Visibility: N/A

Pressure: 30.01 "Hg

Humidity: 94%

Dew point: 50 °F

Location of BernLocation

Historic Weather in Bern — Graph

°F

Bern temperature yesterday

Maximum temperature yesterday: 66 °F (at 11:50 AM)
Minimum temperature yesterday: 52 °F (at 4:20 AM)
Average temperature yesterday: 57 °F

Past Weeks' High & Low Weather Summary

 TemperatureHumidityPressure
High84 °F (May 13, 3:20 PM)100% (May 11, 1:50 AM)30.30 "Hg (May 11, 1:50 AM)
Low39 °F (May 15, 1:20 PM)25% (May 12, 5:20 PM)29.77 "Hg (May 18, 5:50 PM)
Average57 °F72%30.07 "Hg
* Reported May 10 11:50 PM — May 25 11:20 PM, Bern, Weather by CustomWeather, © 2015

Note: Actual official high and low records may vary slightly from our data, if they occured in-between our weather recording intervals... More about our weather records

Advertising

Bern weather history for previous 24 hours

 ConditionsComfort  
Time TempWeatherWind HumidityBarometerVisibility
11:20 PM
Mon, May 25
54 °FPartly cloudy.8 mph88%30.01 "HgN/A
10:20 PM54 °FPartly cloudy.10 mph94%30.01 "HgN/A
9:50 PM54 °FSprinkles. Broken clouds.7 mph94%29.98 "HgN/A
9:20 PM54 °FBroken clouds.3 mph94%29.98 "HgN/A
8:50 PM54 °FDrizzle. Broken clouds.6 mph94%29.98 "HgN/A
8:20 PM54 °FDrizzle. Broken clouds.6 mph94%29.98 "HgN/A
7:50 PM55 °FDrizzle. Broken clouds.7 mph94%29.98 "HgN/A
7:20 PM55 °FLight rain. Broken clouds.10 mph94%29.95 "HgN/A
6:50 PM54 °FSprinkles. Broken clouds.10 mph94%29.95 "HgN/A
6:20 PM55 °FRain showers. Broken clouds.12 mph88%29.95 "HgN/A
5:50 PM59 °FBroken clouds.12 mph77%29.95 "HgN/A
5:20 PM59 °FDrizzle. Broken clouds.13 mph77%29.95 "HgN/A
4:50 PM61 °FLight rain. Broken clouds.3 mph68%29.95 "HgN/A
4:20 PM64 °FBroken clouds.5 mph60%29.95 "HgN/A
3:50 PM66 °FBroken clouds.5 mph60%29.95 "HgN/A
3:20 PM64 °FBroken clouds.6 mph64%29.95 "HgN/A
2:50 PM63 °FBroken clouds.7 mph68%29.95 "HgN/A
2:20 PM64 °FBroken clouds.7 mph64%29.98 "HgN/A
1:50 PM64 °FOvercast.6 mph60%29.98 "HgN/A
1:20 PM64 °FPartly sunny.2 mph56%29.98 "HgN/A
12:50 PM64 °FBroken clouds.2 mph52%29.98 "HgN/A
12:20 PM64 °FPartly sunny.3 mph56%29.98 "HgN/A
11:50 AM66 °FScattered clouds.2 mph52%30.01 "HgN/A
11:20 AM64 °FScattered clouds.3 mph64%30.01 "HgN/A
10:50 AM61 °FScattered clouds.1 mph72%30.01 "HgN/A
10:20 AM61 °FScattered clouds.1 mph72%30.01 "HgN/A
9:50 AM59 °FPartly sunny.No wind77%30.01 "HgN/A
9:20 AM61 °FBroken clouds.3 mph72%30.04 "HgN/A
8:50 AM57 °FBroken clouds.6 mph82%30.01 "HgN/A
8:20 AM55 °FBroken clouds.5 mph82%30.04 "HgN/A
7:50 AM54 °FBroken clouds.6 mph94%30.04 "HgN/A
7:20 AM54 °FPartly sunny.3 mph88%30.04 "HgN/A
6:50 AM52 °FPartly sunny.3 mph94%30.04 "HgN/A
6:20 AM52 °FPassing clouds.3 mph94%30.04 "HgN/A
5:50 AM52 °FPassing clouds.3 mph94%30.04 "HgN/A
5:20 AM52 °FOvercast.3 mph94%30.04 "HgN/A
4:50 AM52 °FOvercast.1 mph94%30.04 "HgN/A
4:20 AM52 °FOvercast.1 mph94%30.04 "HgN/A
3:50 AM54 °FOvercast.1 mph88%30.04 "HgN/A
3:20 AM54 °FOvercast.No wind94%30.04 "HgN/A
2:50 AM54 °FOvercast.2 mph88%30.04 "HgN/A
2:20 AM54 °FOvercast.1 mph88%30.04 "HgN/A
1:50 AM54 °FOvercast.5 mph88%30.04 "HgN/A
1:20 AM54 °FOvercast.3 mph94%30.04 "HgN/A
12:50 AM55 °FOvercast.3 mph82%30.04 "HgN/A
12:20 AM55 °FOvercast.3 mph88%30.04 "HgN/A
Weather by CustomWeather, © 2015

See weather overviewHow to use our weather pages